GW4937 Weather Reports


time (UTC)temp
C
wind
direction
speed
KPH
gust
KPH
rain 1hr
cm
rain 24hr
cm
rain mn
cm
humidity
%
barometer
mb
20260510203143 20 129 9.7 14.5 0.00 0.00 0.00 54 1019.0
20260510202642 20 131 8.0 9.7 0.00 0.00 0.00 58 1019.1
20260510202137 20 131 1.6 3.2 0.00 0.00 0.00 58 1019.0
20260510201635 20 233 9.7 12.9 0.00 0.00 0.00 54 1019.1
20260510201132 19 150 1.6 1.6 0.00 0.00 0.00 59 1019.0
20260510200628 19 150 1.6 4.8 0.00 0.00 0.00 59 1019.0
20260510200126 20 80 1.6 3.2 0.00 0.00 0.00 56 1019.2
20260510195624 20 167 1.6 3.2 0.00 0.00 0.00 56 1019.2
20260510195120 20 127 6.4 11.3 0.00 0.00 0.00 55 1019.2
20260510194619 20 207 0.0 1.6 0.00 0.00 0.00 54 1019.3
20260510194116 20 213 4.8 4.8 0.00 0.00 0.00 52 1019.4
20260510193616 20 143 3.2 3.2 0.00 0.00 0.00 53 1019.3
20260510193112 20 233 3.2 3.2 0.00 0.00 0.00 52 1019.2
20260510192607 21 244 1.6 12.9 0.00 0.00 0.00 52 1019.1
20260510192103 21 263 4.8 6.4 0.00 0.00 0.00 50 1019.1
20260510191559 21 282 8.0 14.5 0.00 0.00 0.00 49 1019.1
20260510191056 21 309 11.3 14.5 0.00 0.00 0.00 48 1019.4
20260510190553 21 97 4.8 4.8 0.00 0.00 0.00 49 1019.0
20260510190051 20 329 4.8 11.3 0.00 0.00 0.00 49 1019.1
20260510185548 21 293 9.7 17.7 0.00 0.00 0.00 49 1018.8
20260510185045 21 304 4.8 9.7 0.00 0.00 0.00 49 1019.2
20260510184542 21 243 3.2 9.7 0.00 0.00 0.00 49 1018.8
20260510184038 21 291 14.5 22.5 0.00 0.00 0.00 46 1018.8
20260510183533 21 276 6.4 14.5 0.00 0.00 0.00 48 1018.8
20260510183028 21 142 3.2 6.4 0.00 0.00 0.00 48 1018.8
20260510182526 22 63 4.8 14.5 0.00 0.00 0.00 45 1019.0
20260510182020 21 53 4.8 12.9 0.00 0.00 0.00 48 1018.8
20260510181519 22 265 9.7 17.7 0.00 0.00 0.00 45 1019.1
20260510181014 22 280 6.4 12.9 0.00 0.00 0.00 45 1019.1
20260510180512 22 222 3.2 4.8 0.00 0.00 0.00 50 1019.0
20260510180009 21 299 1.6 3.2 0.00 0.00 0.00 49 1018.8
20260510175504 22 282 8.0 12.9 0.00 0.00 0.00 46 1019.1
20260510175000 22 119 9.7 14.5 0.00 0.00 0.00 46 1018.8
20260510174458 21 141 8.0 11.3 0.00 0.00 0.00 54 1019.2
20260510173955 21 131 8.0 12.9 0.00 0.00 0.00 47 1019.2
20260510173451 21 253 1.6 11.3 0.00 0.00 0.00 50 1019.1
20260510172948 21 259 3.2 14.5 0.00 0.00 0.00 48 1019.0
20260510172443 21 157 9.7 12.9 0.00 0.00 0.00 49 1019.3
20260510171940 21 204 3.2 4.8 0.00 0.00 0.00 49 1019.3
20260510171436 21 327 9.7 12.9 0.00 0.00 0.00 48 1019.4
20260510170933 21 266 6.4 11.3 0.00 0.00 0.00 48 1019.6
20260510170430 20 282 3.2 12.9 0.00 0.00 0.00 50 1019.4
20260510165925 21 315 12.9 16.1 0.00 0.00 0.00 50 1019.7
20260510165422 20 267 11.3 16.1 0.00 0.00 0.00 51 1019.6
20260510164919 21 139 4.8 16.1 0.00 0.00 0.00 53 1019.8
20260510164416 21 246 4.8 16.1 0.00 0.00 0.00 55 1020.0
20260510163910 20 110 3.2 16.1 0.00 0.00 0.00 55 1019.8
20260510163407 21 159 3.2 17.7 0.00 0.00 0.00 55 1019.9
20260510162902 20 215 9.7 22.5 0.00 0.00 0.00 55 1019.7
20260510162400 20 230 11.3 16.1 0.00 0.00 0.00 52 1019.7
20260510161855 20 280 3.2 14.5 0.00 0.00 0.00 54 1020.0
20260510161351 20 282 17.7 20.9 0.00 0.00 0.00 51 1019.7
20260510160848 20 194 12.9 22.5 0.00 0.00 0.00 51 1019.8
20260510160345 20 266 6.4 24.1 0.00 0.00 0.00 55 1019.9
20260510155843 20 206 9.7 25.7 0.00 0.00 0.00 56 1019.8
20260510155341 19 266 9.7 17.7 0.00 0.00 0.00 57 1019.7
20260510154837 20 120 3.2 12.9 0.00 0.00 0.00 60 1019.7
20260510154333 20 284 1.6 6.4 0.00 0.00 0.00 58 1019.7
20260510153827 20 303 9.7 12.9 0.00 0.00 0.00 57 1019.6
20260510153323 20 269 4.8 9.7 0.00 0.00 0.00 56 1019.9
20260510152820 20 229 3.2 12.9 0.00 0.00 0.00 57 1019.8
20260510152318 19 286 4.8 12.9 0.00 0.00 0.00 58 1019.8
20260510151814 20 104 4.8 11.3 0.00 0.00 0.00 59 1019.4
20260510151312 19 251 4.8 9.7 0.00 0.00 0.00 60 1019.8
20260510150807 19 295 0.0 11.3 0.00 0.00 0.00 58 1019.9
20260510150303 19 229 4.8 17.7 0.00 0.00 0.00 61 1019.9
20260510145759 19 212 3.2 6.4 0.00 0.00 0.00 59 1019.7
20260510145256 19 249 8.0 14.5 0.00 0.00 0.00 63 1019.9
20260510144753 18 254 6.4 14.5 0.00 0.00 0.00 60 1019.6
20260510144249 18 306 11.3 12.9 0.00 0.00 0.00 61 1019.6
20260510143743 18 263 17.7 20.9 0.00 0.00 0.00 62 1019.6
20260510143240 18 217 6.4 11.3 0.00 0.00 0.00 61 1019.4
20260510142736 18 285 4.8 12.9 0.00 0.00 0.00 64 1019.6
20260510142233 18 242 6.4 6.4 0.00 0.00 0.00 61 1019.5
20260510141730 17 257 6.4 9.7 0.00 0.00 0.00 63 1019.4
20260510141229 17 282 4.8 9.7 0.00 0.00 0.00 65 1019.3
20260510140726 18 158 3.2 14.5 0.00 0.00 0.00 63 1019.5
20260510140225 17 273 3.2 9.7 0.00 0.00 0.00 69 1019.4
20260510135720 17 293 12.9 14.5 0.00 0.00 0.00 66 1019.5
20260510135216 17 207 9.7 17.7 0.00 0.00 0.00 68 1019.5
20260510134714 17 242 4.8 6.4 0.00 0.00 0.00 67 1019.4
20260510134211 16 262 1.6 6.4 0.00 0.00 0.00 70 1019.6
20260510133707 17 252 8.0 14.5 0.00 0.00 0.00 68 1019.5
20260510133202 17 112 0.0 6.4 0.00 0.00 0.00 73 1019.4
20260510132658 16 282 0.0 6.4 0.00 0.00 0.00 73 1019.4
20260510132155 16 209 4.8 11.3 0.00 0.00 0.00 70 1019.6
20260510131653 16 119 3.2 3.2 0.00 0.00 0.00 72 1019.5
20260510131151 16 297 8.0 9.7 0.00 0.00 0.00 72 1019.4
20260510130647 16 288 6.4 9.7 0.00 0.00 0.00 74 1019.6
20260510130144 15 320 3.2 3.2 0.00 0.00 0.00 74 1019.5
20260510125640 15 117 6.4 9.7 0.00 0.00 0.00 76 1019.2
20260510125137 15 248 0.0 6.4 0.00 0.00 0.00 77 1019.3
20260510124634 15 185 6.4 14.5 0.00 0.00 0.00 77 1019.5
20260510124130 15 163 4.8 9.7 0.00 0.00 0.00 78 1019.4
20260510123626 14 199 0.0 4.8 0.00 0.00 0.00 79 1019.3
20260510123122 14 214 3.2 16.1 0.00 0.00 0.00 80 1019.1
20260510122618 14 122 1.6 9.7 0.00 0.00 0.00 80 1019.4
20260510122114 14 147 4.8 9.7 0.00 0.00 0.00 79 1019.2
20260510121611 14 162 4.8 9.7 0.00 0.00 0.00 80 1019.2
20260510121108 13 119 3.2 9.7 0.00 0.00 0.00 80 1018.8
20260510120607 13 198 3.2 4.8 0.00 0.00 0.00 81 1018.8
20260510115558 13 117 1.6 9.7 0.00 0.00 0.00 83 1018.7
20260510115056 13 157 3.2 11.3 0.00 0.00 0.00 83 1018.7
20260510114552 13 146 3.2 4.8 0.00 0.00 0.00 84 1018.7
20260510114048 13 101 0.0 4.8 0.00 0.00 0.00 85 1018.5
20260510113542 12 156 3.2 9.7 0.00 0.00 0.00 84 1018.3
20260510113041 12 145 4.8 6.4 0.00 0.00 0.00 86 1018.5
20260510112537 12 119 8.0 11.3 0.00 0.00 0.00 85 1018.4
20260510112033 12 132 9.7 16.1 0.00 0.00 0.00 86 1018.4
20260510111530 11 131 3.2 4.8 0.00 0.00 0.00 88 1018.5
20260510111026 12 142 3.2 4.8 0.00 0.00 0.00 88 1018.3
20260510110522 11 141 3.2 9.7 0.00 0.00 0.00 88 1018.5
20260510110019 11 166 0.0 6.4 0.00 0.00 0.00 90 1018.3
20260510105514 11 142 3.2 9.7 0.00 0.00 0.00 90 1018.4
20260510105009 11 200 3.2 4.8 0.00 0.00 0.00 89 1018.3
20260510104506 11 136 8.0 9.7 0.00 0.00 0.00 91 1018.0
20260510104002 11 140 1.6 9.7 0.00 0.00 0.00 92 1018.0
20260510103500 11 227 1.6 4.8 0.00 0.00 0.00 91 1018.0
20260510102955 11 149 8.0 11.3 0.00 0.00 0.00 93 1017.8
20260510102451 10 179 6.4 6.4 0.00 0.00 0.00 94 1017.8
20260510101948 10 130 1.6 3.2 0.00 0.00 0.00 94 1017.8
20260510101446 10 167 1.6 3.2 0.00 0.00 0.00 96 1017.5
20260510100944 10 122 3.2 3.2 0.00 0.00 0.00 96 1017.3
20260510100440 10 216 1.6 3.2 0.00 0.00 0.00 97 1017.4
20260510095936 10 133 1.6 1.6 0.00 0.00 0.00 98 1017.4
20260510095432 10 108 3.2 9.7 0.00 0.00 0.00 98 1017.4
20260510094931 9 124 1.6 9.7 0.00 0.00 0.00 99 1017.4
20260510094426 8 163 0.0 1.6 0.00 0.00 0.00 99 1017.3
20260510093922 8 159 3.2 3.2 0.00 0.00 0.00 99 1017.4
20260510093419 8 129 3.2 6.4 0.00 0.00 0.00 99 1017.1
20260510092915 7 298 0.0 0.0 0.00 0.00 0.00 99 1017.3
20260510092413 7 292 0.0 0.0 0.00 0.00 0.00 99 1017.2
20260510091912 7 292 0.0 0.0 0.00 0.00 0.00 99 1017.1
20260510091409 8 292 1.6 3.2 0.00 0.00 0.00 99 1017.2
20260510090906 7 202 0.0 1.6 0.00 0.00 0.00 99 1017.2
20260510090403 7 199 0.0 3.2 0.00 0.00 0.00 99 1017.0
20260510085858 7 122 0.0 0.0 0.00 0.00 0.00 99 1017.0
20260510085354 7 142 0.0 0.0 0.00 0.00 0.00 99 1016.8
20260510084849 7 167 0.0 0.0 0.00 0.00 0.00 99 1017.0
20260510084347 7 118 0.0 0.0 0.00 0.00 0.00 99 1016.8
20260510083843 7 107 0.0 0.0 0.00 0.00 0.00 99 1016.9
20260510083340 7 162 0.0 0.0 0.00 0.00 0.00 99 1017.0
20260510082835 7 146 0.0 0.0 0.00 0.00 0.00 99 1016.8
20260510082333 8 137 0.0 0.0 0.00 0.00 0.00 99 1016.7
20260510081831 7 115 0.0 0.0 0.00 0.00 0.00 99 1016.8
20260510081328 7 120 0.0 0.0 0.00 0.00 0.00 99 1016.5
20260510080824 7 98 0.0 0.0 0.00 0.00 0.00 99 1016.8
20260510080319 8 135 0.0 0.0 0.00 0.00 0.00 99 1016.6
20260510075817 8 197 0.0 0.0 0.00 0.00 0.00 99 1016.5
20260510075314 8 129 0.0 0.0 0.00 0.00 0.00 99 1016.6
20260510074810 8 135 0.0 1.6 0.00 0.00 0.00 99 1016.6
20260510074307 8 148 0.0 0.0 0.00 0.00 0.00 99 1016.7
20260510073803 8 158 0.0 0.0 0.00 0.00 0.00 99 1016.6
20260510073259 8 170 0.0 0.0 0.00 0.00 0.00 99 1016.7
20260510072755 8 200 0.0 0.0 0.00 0.00 0.00 99 1016.5
20260510072252 8 205 0.0 0.0 0.00 0.00 0.00 98 1016.7
20260510071748 8 260 0.0 0.0 0.00 0.00 0.00 98 1016.7
20260510071245 9 260 0.0 1.6 0.00 0.00 0.00 98 1016.6
20260510070744 9 155 0.0 1.6 0.00 0.00 0.00 99 1016.5
20260510070241 8 244 1.6 3.2 0.00 0.00 0.00 99 1016.3
20260510065740 8 154 0.0 0.0 0.00 0.00 0.00 99 1016.5
20260510065237 9 190 0.0 0.0 0.00 0.00 0.00 99 1016.3
20260510064734 8 192 0.0 6.4 0.00 0.00 0.00 99 1016.3
20260510064232 8 133 0.0 0.0 0.00 0.00 0.00 99 1016.4
20260510063728 8 124 0.0 0.0 0.00 0.00 0.00 99 1016.5
20260510063224 8 326 0.0 0.0 0.00 0.00 0.00 99 1016.4
20260510062721 8 326 0.0 0.0 0.00 0.00 0.00 99 1016.5
20260510062217 8 326 0.0 0.0 0.00 0.00 0.00 98 1016.3
20260510061712 8 326 0.0 0.0 0.00 0.00 0.00 98 1016.3
20260510061210 8 326 0.0 0.0 0.00 0.00 0.00 98 1016.4
20260510060706 8 326 0.0 0.0 0.00 0.00 0.00 98 1016.4
20260510060203 9 326 0.0 1.6 0.00 0.00 0.00 98 1016.5
20260510055659 9 326 0.0 1.6 0.00 0.00 0.00 97 1016.5
20260510055157 9 123 0.0 0.0 0.00 0.00 0.00 97 1016.4
20260510054652 9 123 0.0 1.6 0.00 0.00 0.00 96 1016.6
20260510054148 10 123 0.0 0.0 0.00 0.00 0.00 96 1016.5
20260510053647 10 170 0.0 6.4 0.00 0.00 0.00 96 1016.4
20260510053144 8 113 0.0 0.0 0.00 0.00 0.00 99 1016.5
20260510052640 8 63 0.0 0.0 0.00 0.00 0.00 99 1016.4
20260510052136 8 125 0.0 0.0 0.00 0.00 0.00 99 1016.4
20260510051632 8 135 0.0 1.6 0.00 0.00 0.00 99 1016.5
20260510051129 8 133 0.0 0.0 0.00 0.00 0.00 99 1016.5
20260510050626 8 225 0.0 0.0 0.00 0.00 0.00 99 1016.6
20260510050123 8 291 0.0 1.6 0.00 0.00 0.00 99 1016.5
20260510045620 8 213 0.0 0.0 0.00 0.00 0.00 99 1016.5
20260510045117 8 196 0.0 1.6 0.00 0.00 0.00 99 1016.4
20260510044613 8 172 0.0 0.0 0.00 0.00 0.00 99 1016.5
20260510044111 8 144 0.0 0.0 0.00 0.00 0.00 99 1016.6
20260510043606 8 144 0.0 0.0 0.00 0.00 0.00 99 1016.5
20260510043102 8 154 0.0 0.0 0.00 0.00 0.00 99 1016.6
20260510042601 8 181 0.0 0.0 0.00 0.00 0.00 99 1016.7
20260510042056 8 201 0.0 0.0 0.00 0.00 0.00 99 1016.4
20260510041553 8 140 0.0 0.0 0.00 0.00 0.00 99 1016.5
20260510041051 8 136 0.0 0.0 0.00 0.00 0.00 98 1016.4
20260510040548 8 140 0.0 0.0 0.00 0.00 0.00 98 1016.5
20260510040043 8 140 0.0 0.0 0.00 0.00 0.00 98 1016.1
20260510035540 8 134 0.0 0.0 0.00 0.00 0.00 98 1016.4
20260510035039 8 225 0.0 0.0 0.00 0.00 0.00 97 1016.4
20260510034538 8 143 0.0 0.0 0.00 0.00 0.00 97 1016.4
20260510034035 9 146 0.0 0.0 0.00 0.00 0.00 97 1016.4
20260510033530 8 126 0.0 1.6 0.00 0.00 0.00 97 1016.3
20260510033029 8 133 0.0 0.0 0.00 0.00 0.00 97 1016.4
20260510032525 8 128 0.0 0.0 0.00 0.00 0.00 96 1016.3
20260510032020 8 106 0.0 0.0 0.00 0.00 0.00 97 1016.4
20260510031516 8 139 0.0 0.0 0.00 0.00 0.00 96 1016.4
20260510031012 9 143 0.0 0.0 0.00 0.00 0.00 96 1016.5
20260510030507 8 125 0.0 0.0 0.00 0.00 0.00 96 1016.5
20260510030004 9 160 0.0 0.0 0.00 0.00 0.00 96 1016.6
20260510025456 9 101 0.0 0.0 0.00 0.00 0.00 96 1016.6
20260510024953 8 125 0.0 0.0 0.00 0.00 0.00 96 1016.7
20260510024449 8 126 0.0 0.0 0.00 0.00 0.00 95 1016.6
20260510023945 9 125 0.0 0.0 0.00 0.00 0.00 95 1016.5
20260510023442 9 142 0.0 0.0 0.00 0.00 0.00 94 1016.5
20260510022939 9 120 0.0 0.0 0.00 0.00 0.00 95 1016.3
20260510022438 -17 0.0 0.0 0.00 0.00 0.00 1016.4
20260510021937 -17 0.0 0.0 0.00 0.00 0.00 1016.3
20260510021435 9 131 0.0 0.0 0.00 0.00 0.00 94 1016.1
20260510020932 9 131 0.0 0.0 0.00 0.00 0.00 94 1016.1
20260510020426 -17 0.0 0.0 0.00 0.00 0.00 1015.8
20260510015922 -17 0.0 0.0 0.00 0.00 0.00 1016.0
20260510015418 -17 0.0 0.0 0.00 0.00 0.00 1015.6
20260510014914 -17 0.0 0.0 0.00 0.00 0.00 1015.8
20260510014412 -17 0.0 0.0 0.00 0.00 0.00 1015.6
20260510013908 -17 0.0 0.0 0.00 0.00 0.00 1015.5
20260510013403 -17 0.0 0.0 0.00 0.00 0.00 1015.4
20260510012858 -17 0.0 0.0 0.00 0.00 0.00 1015.3
20260510012353 -17 0.0 0.0 0.00 0.00 0.00 1015.3
20260510011848 -17 0.0 0.0 0.00 0.00 0.00 1015.2
20260510011344 -17 0.0 0.0 0.00 0.00 0.00 1015.2
20260510010840 -17 0.0 0.0 0.00 0.00 0.00 1015.1
20260510010338 12 144 0.0 1.6 0.00 0.00 0.00 81 1015.0
20260510005834 12 144 0.0 1.6 0.00 0.00 0.00 81 1015.0
20260510005330 12 122 0.0 0.0 0.00 0.00 0.00 79 1014.8
20260510004828 12 116 0.0 0.0 0.00 0.00 0.00 78 1014.8
20260510004326 13 135 0.0 0.0 0.00 0.00 0.00 74 1014.8
20260510003823 13 133 3.2 4.8 0.00 0.00 0.00 74 1014.8
20260510003320 14 37 0.0 0.0 0.00 0.00 0.00 71 1015.0
20260510002818 14 37 1.6 1.6 0.00 0.00 0.00 70 1014.7
20260510002316 14 301 1.6 3.2 0.00 0.00 0.00 70 1014.5
20260510001812 14 80 0.0 3.2 0.00 0.00 0.00 69 1015.0
20260510001311 14 296 1.6 3.2 0.00 0.00 0.00 68 1014.5
20260510000806 15 196 0.0 3.2 0.00 0.00 0.00 67 1014.5
20260510000304 15 292 3.2 3.2 0.00 0.00 0.00 65 1014.4
20260509235801 15 230 1.6 4.8 0.00 0.00 0.00 63 1014.4
20260509235257 16 248 1.6 4.8 0.00 0.00 0.00 62 1014.3
20260509234753 16 331 3.2 3.2 0.00 0.00 0.00 62 1014.2
20260509234250 16 174 3.2 4.8 0.00 0.00 0.00 60 1014.3
20260509233749 16 260 3.2 6.4 0.00 0.00 0.00 61 1014.2
20260509233246 17 262 17.7 22.5 0.00 0.00 0.00 59 1014.2
20260509232741 16 229 3.2 3.2 0.00 0.00 0.00 60 1014.2
20260509232239 16 122 4.8 9.7 0.00 0.00 0.00 62 1014.3
20260509231735 17 129 6.4 9.7 0.00 0.00 0.00 57 1014.1
20260509231232 17 289 4.8 6.4 0.00 0.00 0.00 56 1014.1
20260509230730 17 303 1.6 3.2 0.00 0.00 0.00 58 1014.1
20260509230227 17 284 8.0 11.3 0.00 0.00 0.00 57 1014.0
20260509225722 17 302 9.7 12.9 0.00 0.00 0.00 58 1014.1
20260509225218 17 244 3.2 9.7 0.00 0.00 0.00 56 1014.1
20260509224713 18 248 8.0 9.7 0.00 0.00 0.00 56 1014.0
20260509224211 17 256 3.2 3.2 0.00 0.00 0.00 59 1013.9
20260509223708 17 152 3.2 11.3 0.00 0.00 0.00 54 1014.1
20260509223205 17 287 3.2 6.4 0.00 0.00 0.00 56 1014.2
20260509222702 17 279 14.5 14.5 0.00 0.00 0.00 54 1014.3
20260509222157 17 202 3.2 9.7 0.00 0.00 0.00 56 1014.2
20260509221653 18 143 6.4 9.7 0.00 0.00 0.00 54 1014.2
20260509221149 18 177 4.8 11.3 0.00 0.00 0.00 51 1014.3
20260509220645 17 194 1.6 6.4 0.00 0.00 0.00 52 1014.3
20260509220141 17 294 6.4 6.4 0.00 0.00 0.00 55 1014.0
20260509215638 17 259 3.2 6.4 0.00 0.00 0.00 55 1014.3
20260509215134 17 197 1.6 6.4 0.00 0.00 0.00 54 1014.3
20260509214632 17 275 4.8 12.9 0.00 0.00 0.00 53 1014.2
20260509214128 17 109 3.2 6.4 0.00 0.00 0.00 52 1014.3
20260509213625 17 41 1.6 6.4 0.00 0.00 0.00 54 1014.2
20260509213121 17 298 3.2 11.3 0.00 0.00 0.00 56 1014.3
20260509212619 17 247 0.0 4.8 0.00 0.00 0.00 60 1014.4
20260509212115 17 151 6.4 9.7 0.00 0.00 0.00 56 1014.3
20260509211611 18 239 3.2 9.7 0.00 0.00 0.00 56 1014.2
20260509211108 17 109 3.2 12.9 0.00 0.00 0.00 54 1014.1
20260509210605 17 130 6.4 12.9 0.00 0.00 0.00 54 1014.0
20260509205555 17 126 4.8 11.3 0.00 0.00 0.00 55 1013.9
20260509205051 17 306 3.2 12.9 0.00 0.00 0.00 54 1013.8
20260509204547 17 118 3.2 12.9 0.00 0.00 0.00 56 1013.8
20260509204044 17 135 3.2 11.3 0.00 0.00 0.00 55 1013.8